| time (UTC) | temp F | wind direction | speed MPH | gust MPH | rain 1hr in | rain 24hr in | rain mn in | humidity % | barometer mb |
| 20260508113623 | 40 | 84 | 0.0 | 1.0 | 0.00 | 0.00 | 0.00 | 91 | 1008.7 |
| 20260508113121 | 40 | 254 | 2.0 | 3.0 | 0.00 | 0.00 | 0.00 | 90 | 1008.6 |
| 20260508112617 | 40 | 196 | 0.0 | 0.0 | 0.00 | 0.00 | 0.00 | 91 | 1008.8 |
| 20260508112114 | 39 | 212 | 0.0 | 0.0 | 0.00 | 0.00 | 0.00 | 95 | 1008.6 |
| 20260508111611 | 38 | 232 | 0.0 | 0.0 | 0.00 | 0.00 | 0.00 | 96 | 1008.6 |
| 20260508111108 | 37 | 181 | 0.0 | 1.0 | 0.00 | 0.00 | 0.00 | 97 | 1008.6 |
| 20260508110606 | 37 | 231 | 0.0 | 0.0 | 0.00 | 0.00 | 0.00 | 98 | 1008.9 |
| 20260508105556 | 36 | 215 | 0.0 | 0.0 | 0.00 | 0.02 | 0.02 | 99 | 1008.7 |
| 20260508105054 | 36 | 213 | 0.0 | 0.0 | 0.00 | 0.02 | 0.02 | 99 | 1008.7 |
| 20260508104552 | 36 | 302 | 3.0 | 3.0 | 0.00 | 0.02 | 0.02 | 99 | 1008.4 |
| 20260508104048 | 36 | 218 | 0.0 | 0.0 | 0.00 | 0.02 | 0.02 | 99 | 1008.4 |
| 20260508103545 | 35 | 224 | 0.0 | 0.0 | 0.00 | 0.02 | 0.02 | 99 | 1008.3 |
| 20260508103042 | 35 | 228 | 0.0 | 0.0 | 0.00 | 0.02 | 0.02 | 99 | 1008.4 |
| 20260508102540 | 35 | 229 | 0.0 | 0.0 | 0.00 | 0.02 | 0.02 | 99 | 1008.6 |
| 20260508102038 | 34 | 238 | 0.0 | 0.0 | 0.00 | 0.02 | 0.02 | 99 | 1008.7 |
| 20260508101535 | 34 | 214 | 0.0 | 0.0 | 0.00 | 0.02 | 0.02 | 99 | 1008.7 |
| 20260508101032 | 34 | 228 | 0.0 | 0.0 | 0.00 | 0.02 | 0.02 | 99 | 1008.4 |
| 20260508100530 | 34 | 224 | 0.0 | 1.0 | 0.00 | 0.02 | 0.02 | 99 | 1008.6 |
| 20260508100027 | 35 | 222 | 0.0 | 0.0 | 0.00 | 0.02 | 0.02 | 99 | 1008.2 |
| 20260508095524 | 34 | 227 | 0.0 | 0.0 | 0.00 | 0.02 | 0.02 | 99 | 1008.4 |
| 20260508095020 | 34 | 233 | 0.0 | 0.0 | 0.00 | 0.02 | 0.02 | 99 | 1008.3 |
| 20260508094518 | 34 | 253 | 0.0 | 0.0 | 0.00 | 0.02 | 0.02 | 99 | 1008.4 |
| 20260508094014 | 34 | 239 | 0.0 | 0.0 | 0.00 | 0.02 | 0.02 | 99 | 1008.2 |
| 20260508093511 | 34 | 227 | 0.0 | 0.0 | 0.00 | 0.02 | 0.02 | 99 | 1008.2 |
| 20260508093009 | 34 | 226 | 0.0 | 0.0 | 0.00 | 0.02 | 0.02 | 99 | 1008.6 |
| 20260508092501 | 35 | 231 | 0.0 | 0.0 | 0.00 | 0.02 | 0.02 | 99 | 1008.3 |
| 20260508092000 | 34 | 229 | 0.0 | 0.0 | 0.00 | 0.02 | 0.02 | 99 | 1008.1 |
| 20260508091456 | 35 | 229 | 0.0 | 0.0 | 0.00 | 0.02 | 0.02 | 99 | 1008.2 |
| 20260508090953 | 35 | 228 | 0.0 | 0.0 | 0.00 | 0.02 | 0.02 | 99 | 1008.2 |
| 20260508090451 | 35 | 223 | 0.0 | 0.0 | 0.00 | 0.02 | 0.02 | 99 | 1008.3 |
| 20260508085947 | 35 | 241 | 0.0 | 1.0 | 0.00 | 0.02 | 0.02 | 99 | 1008.3 |
| 20260508085444 | 35 | 233 | 0.0 | 0.0 | 0.00 | 0.02 | 0.02 | 99 | 1008.2 |
| 20260508084940 | 35 | 219 | 0.0 | 0.0 | 0.00 | 0.02 | 0.02 | 99 | 1008.0 |
| 20260508084437 | 35 | 217 | 0.0 | 0.0 | 0.00 | 0.02 | 0.02 | 99 | 1008.1 |
| 20260508083935 | 35 | 228 | 0.0 | 0.0 | 0.00 | 0.02 | 0.02 | 99 | 1008.0 |
| 20260508083432 | 36 | 221 | 0.0 | 0.0 | 0.00 | 0.02 | 0.02 | 99 | 1008.1 |
| 20260508082932 | 36 | 176 | 0.0 | 0.0 | 0.00 | 0.02 | 0.02 | 99 | 1007.8 |
| 20260508082424 | 36 | 204 | 0.0 | 0.0 | 0.00 | 0.02 | 0.02 | 99 | 1007.9 |
| 20260508081922 | 37 | 145 | 1.0 | 1.0 | 0.00 | 0.02 | 0.02 | 99 | 1007.9 |
| 20260508081418 | 37 | 194 | 0.0 | 0.0 | 0.00 | 0.02 | 0.02 | 99 | 1008.0 |
| 20260508080914 | 37 | 211 | 0.0 | 1.0 | 0.00 | 0.02 | 0.02 | 99 | 1008.0 |
| 20260508080413 | 36 | 75 | 0.0 | 0.0 | 0.00 | 0.02 | 0.02 | 99 | 1008.0 |
| 20260508075908 | 36 | 215 | 0.0 | 0.0 | 0.00 | 0.02 | 0.02 | 99 | 1008.0 |
| 20260508075406 | 36 | 212 | 0.0 | 0.0 | 0.00 | 0.02 | 0.02 | 99 | 1008.0 |
| 20260508074904 | 36 | 218 | 0.0 | 0.0 | 0.00 | 0.02 | 0.02 | 99 | 1008.1 |
| 20260508074400 | 36 | 234 | 0.0 | 0.0 | 0.00 | 0.02 | 0.02 | 99 | 1008.2 |
| 20260508073857 | 36 | 216 | 0.0 | 0.0 | 0.00 | 0.02 | 0.02 | 99 | 1008.2 |
| 20260508073355 | 36 | 236 | 0.0 | 0.0 | 0.00 | 0.02 | 0.02 | 99 | 1008.0 |
| 20260508072851 | 36 | 236 | 0.0 | 0.0 | 0.00 | 0.02 | 0.02 | 99 | 1008.2 |
| 20260508072348 | 36 | 210 | 0.0 | 0.0 | 0.00 | 0.02 | 0.02 | 99 | 1008.2 |
| 20260508071845 | 35 | 236 | 0.0 | 0.0 | 0.00 | 0.02 | 0.02 | 99 | 1008.1 |
| 20260508071344 | 35 | 236 | 0.0 | 0.0 | 0.00 | 0.02 | 0.02 | 99 | 1008.2 |
| 20260508070841 | 35 | 236 | 0.0 | 0.0 | 0.00 | 0.02 | 0.02 | 99 | 1008.2 |
| 20260508070339 | 35 | 236 | 0.0 | 0.0 | 0.00 | 0.02 | 0.02 | 99 | 1008.3 |
| 20260508065836 | 35 | 236 | 0.0 | 0.0 | 0.00 | 0.02 | 0.02 | 99 | 1008.1 |
| 20260508065334 | 35 | 236 | 0.0 | 0.0 | 0.00 | 0.02 | 0.02 | 99 | 1008.1 |
| 20260508064832 | 35 | 236 | 0.0 | 0.0 | 0.00 | 0.02 | 0.02 | 99 | 1008.1 |
| 20260508064330 | 35 | 236 | 0.0 | 0.0 | 0.00 | 0.02 | 0.02 | 99 | 1007.8 |
| 20260508063827 | 35 | 236 | 0.0 | 0.0 | 0.00 | 0.02 | 0.02 | 98 | 1007.9 |
| 20260508063325 | 35 | 236 | 0.0 | 0.0 | 0.00 | 0.02 | 0.02 | 98 | 1008.1 |
| 20260508062822 | 36 | 236 | 0.0 | 0.0 | 0.00 | 0.02 | 0.02 | 98 | 1008.1 |
| 20260508062319 | 36 | 236 | 0.0 | 0.0 | 0.00 | 0.02 | 0.02 | 98 | 1008.2 |
| 20260508061816 | 36 | 237 | 0.0 | 0.0 | 0.00 | 0.02 | 0.02 | 98 | 1008.2 |
| 20260508061313 | 36 | 237 | 0.0 | 0.0 | 0.00 | 0.02 | 0.02 | 97 | 1008.4 |
| 20260508060810 | 37 | 236 | 0.0 | 0.0 | 0.00 | 0.02 | 0.02 | 97 | 1008.3 |
| 20260508060308 | 37 | 236 | 0.0 | 0.0 | 0.00 | 0.02 | 0.02 | 97 | 1008.2 |
| 20260508055802 | 38 | 236 | 0.0 | 0.0 | 0.00 | 0.02 | 0.02 | 97 | 1008.3 |
| 20260508055300 | 38 | 237 | 0.0 | 0.0 | 0.00 | 0.02 | 0.02 | 97 | 1008.2 |
| 20260508054756 | 38 | 237 | 0.0 | 0.0 | 0.00 | 0.02 | 0.02 | 96 | 1008.2 |
| 20260508054254 | 38 | 246 | 0.0 | 0.0 | 0.00 | 0.02 | 0.02 | 96 | 1008.2 |
| 20260508053751 | 38 | 205 | 0.0 | 0.0 | 0.00 | 0.02 | 0.02 | 96 | 1008.3 |
| 20260508053248 | 38 | 225 | 0.0 | 0.0 | 0.00 | 0.02 | 0.02 | 96 | 1008.4 |
| 20260508052746 | 38 | 196 | 0.0 | 0.0 | 0.00 | 0.02 | 0.02 | 95 | 1008.6 |
| 20260508052243 | 38 | 201 | 0.0 | 0.0 | 0.00 | 0.02 | 0.02 | 94 | 1008.7 |
| 20260508051738 | 38 | 209 | 0.0 | 0.0 | 0.00 | 0.02 | 0.02 | 93 | 1009.0 |
| 20260508051234 | 38 | 219 | 0.0 | 0.0 | 0.05 | 0.02 | 0.02 | 93 | 1008.9 |
| 20260508050731 | 39 | 216 | 0.0 | 0.0 | 0.00 | 0.01 | 0.01 | 93 | 1009.1 |
| 20260508050228 | 39 | 235 | 0.0 | 0.0 | 0.00 | 0.01 | 0.01 | 92 | 1009.3 |
| 20260508045723 | 39 | 219 | 0.0 | 0.0 | 0.00 | 0.01 | 0.01 | 88 | 1009.2 |
| 20260508045222 | 39 | 228 | 0.0 | 1.0 | 0.00 | 0.01 | 0.01 | 89 | 1009.1 |
| 20260508044719 | 39 | 230 | 0.0 | 0.0 | 0.00 | 0.01 | 0.01 | 93 | 1009.1 |
| 20260508044215 | 39 | 194 | 0.0 | 0.0 | 0.00 | 0.01 | 0.01 | 92 | 1008.9 |
| 20260508043711 | 39 | 222 | 0.0 | 0.0 | 0.00 | 0.01 | 0.01 | 91 | 1008.8 |
| 20260508043209 | 39 | 231 | 0.0 | 0.0 | 0.00 | 0.01 | 0.01 | 90 | 1008.9 |
| 20260508042705 | 40 | 231 | 0.0 | 0.0 | 0.00 | 0.01 | 0.01 | 87 | 1008.8 |
| 20260508042203 | 39 | 241 | 0.0 | 1.0 | 0.00 | 0.01 | 0.01 | 87 | 1008.6 |
| 20260508041659 | 39 | 226 | 0.0 | 1.0 | 0.00 | 0.01 | 0.01 | 93 | 1008.8 |
| 20260508041156 | 39 | 234 | 0.0 | 0.0 | 0.00 | 0.01 | 0.01 | 93 | 1008.3 |
| 20260508040653 | 39 | 231 | 0.0 | 0.0 | 0.00 | 0.01 | 0.01 | 93 | 1008.2 |
| 20260508040150 | 40 | 228 | 0.0 | 0.0 | 0.07 | 0.01 | 0.01 | 91 | 1008.1 |
| 20260508035647 | 40 | 227 | 0.0 | 1.0 | 0.07 | 0.01 | 0.01 | 87 | 1007.9 |
| 20260508035145 | 41 | 199 | 1.0 | 3.0 | 0.00 | 0.00 | 0.00 | 83 | 1007.9 |
| 20260508034641 | 41 | 198 | 3.0 | 7.0 | 0.00 | 0.00 | 0.00 | 82 | 1008.2 |
| 20260508034138 | 41 | 235 | 0.0 | 0.0 | 0.00 | 0.00 | 0.00 | 83 | 1008.2 |
| 20260508033636 | 42 | 215 | 0.0 | 0.0 | 0.00 | 0.00 | 0.00 | 78 | 1008.3 |
| 20260508033134 | 41 | 235 | 0.0 | 0.0 | 0.00 | 0.00 | 0.00 | 77 | 1008.4 |
| 20260508032630 | 41 | 212 | 0.0 | 0.0 | 0.00 | 0.00 | 0.00 | 74 | 1008.3 |
| 20260508032128 | 41 | 229 | 0.0 | 0.0 | 0.00 | 0.00 | 0.00 | 81 | 1007.9 |
| 20260508031625 | 41 | 229 | 0.0 | 0.0 | 0.00 | 0.00 | 0.00 | 81 | 1008.0 |
| 20260508031121 | 41 | 229 | 0.0 | 0.0 | 0.00 | 0.00 | 0.00 | 84 | 1008.1 |
| 20260508030617 | 41 | 229 | 0.0 | 0.0 | 0.00 | 0.00 | 0.00 | 84 | 1008.0 |
| 20260508030115 | 41 | 229 | 0.0 | 0.0 | 0.00 | 0.00 | 0.00 | 85 | 1008.1 |
| 20260508025611 | 41 | 230 | 0.0 | 0.0 | 0.00 | 0.00 | 0.00 | 86 | 1008.0 |
| 20260508025108 | 41 | 230 | 0.0 | 0.0 | 0.00 | 0.00 | 0.00 | 86 | 1008.0 |
| 20260508024604 | 40 | 223 | 0.0 | 0.0 | 0.00 | 0.00 | 0.00 | 83 | 1007.9 |
| 20260508024102 | 40 | 223 | 0.0 | 0.0 | 0.00 | 0.00 | 0.00 | 86 | 1007.8 |
| 20260508023558 | 40 | 223 | 0.0 | 0.0 | 0.00 | 0.00 | 0.00 | 86 | 1008.0 |
| 20260508023055 | 40 | 223 | 0.0 | 0.0 | 0.00 | 0.00 | 0.00 | 86 | 1008.1 |
| 20260508022551 | 40 | 223 | 0.0 | 0.0 | 0.00 | 0.00 | 0.00 | 86 | 1008.0 |
| 20260508022048 | 40 | 223 | 0.0 | 0.0 | 0.00 | 0.00 | 0.00 | 86 | 1008.1 |
| 20260508021544 | 40 | 224 | 0.0 | 0.0 | 0.00 | 0.00 | 0.00 | 86 | 1008.0 |
| 20260508021040 | 40 | 223 | 0.0 | 0.0 | 0.00 | 0.00 | 0.00 | 84 | 1008.1 |
| 20260508020537 | 40 | 223 | 0.0 | 0.0 | 0.00 | 0.00 | 0.00 | 86 | 1007.9 |
| 20260508020035 | 40 | 223 | 0.0 | 0.0 | 0.00 | 0.00 | 0.00 | 85 | 1007.9 |
| 20260508015532 | 40 | 223 | 0.0 | 0.0 | 0.00 | 0.00 | 0.00 | 86 | 1008.0 |
| 20260508015030 | 40 | 223 | 0.0 | 0.0 | 0.00 | 0.00 | 0.00 | 86 | 1007.8 |
| 20260508014526 | 40 | 223 | 0.0 | 0.0 | 0.00 | 0.00 | 0.00 | 85 | 1007.7 |
| 20260508014022 | 39 | 223 | 0.0 | 0.0 | 0.00 | 0.00 | 0.00 | 84 | 1008.0 |
| 20260508013518 | 39 | 223 | 0.0 | 0.0 | 0.00 | 0.00 | 0.00 | 84 | 1007.9 |
| 20260508013016 | 39 | 223 | 0.0 | 0.0 | 0.00 | 0.00 | 0.00 | 84 | 1007.8 |
| 20260508012513 | 39 | 223 | 0.0 | 0.0 | 0.00 | 0.00 | 0.00 | 82 | 1007.8 |
| 20260508012010 | 39 | 233 | 0.0 | 0.0 | 0.00 | 0.00 | 0.00 | 87 | 1007.7 |
| 20260508011508 | 39 | 233 | 0.0 | 0.0 | 0.00 | 0.00 | 0.00 | 85 | 1007.8 |
| 20260508011005 | 39 | 233 | 0.0 | 0.0 | 0.00 | 0.00 | 0.00 | 82 | 1007.9 |
| 20260508010502 | 39 | 233 | 0.0 | 0.0 | 0.00 | 0.00 | 0.00 | 83 | 1007.9 |
| 20260508005959 | 39 | 234 | 0.0 | 0.0 | 0.00 | 0.00 | 0.00 | 82 | 1007.8 |
| 20260508005456 | 39 | 234 | 0.0 | 0.0 | 0.00 | 0.00 | 0.00 | 81 | 1007.6 |
| 20260508004953 | 40 | 234 | 0.0 | 0.0 | 0.00 | 0.00 | 0.00 | 79 | 1007.6 |
| 20260508004448 | 40 | 234 | 0.0 | 0.0 | 0.00 | 0.00 | 0.00 | 78 | 1007.6 |
| 20260508003945 | 40 | 234 | 0.0 | 0.0 | 0.00 | 0.00 | 0.00 | 78 | 1007.5 |
| 20260508003442 | 41 | 234 | 0.0 | 0.0 | 0.00 | 0.00 | 0.00 | 78 | 1007.5 |
| 20260508002939 | 41 | 234 | 0.0 | 0.0 | 0.00 | 0.00 | 0.00 | 77 | 1007.5 |
| 20260508002436 | 41 | 234 | 0.0 | 0.0 | 0.00 | 0.00 | 0.00 | 76 | 1007.4 |
| 20260508001932 | 42 | 234 | 0.0 | 0.0 | 0.00 | 0.00 | 0.00 | 75 | 1007.5 |
| 20260508001428 | 42 | 234 | 0.0 | 0.0 | 0.00 | 0.00 | 0.00 | 73 | 1007.6 |
| 20260508000925 | 43 | 234 | 0.0 | 0.0 | 0.00 | 0.00 | 0.00 | 73 | 1007.3 |
| 20260508000421 | 43 | 234 | 0.0 | 0.0 | 0.00 | 0.00 | 0.00 | 71 | 1007.5 |
| 20260507235918 | 44 | 234 | 0.0 | 0.0 | 0.00 | 0.00 | 0.00 | 68 | 1007.2 |
| 20260507235415 | 44 | 234 | 0.0 | 0.0 | 0.00 | 0.00 | 0.00 | 69 | 1007.2 |
| 20260507234912 | 45 | 221 | 0.0 | 0.0 | 0.00 | 0.00 | 0.00 | 66 | 1007.2 |
| 20260507234403 | 45 | 226 | 0.0 | 0.0 | 0.00 | 0.00 | 0.00 | 65 | 1007.2 |
| 20260507233900 | 46 | 224 | 0.0 | 0.0 | 0.00 | 0.00 | 0.00 | 63 | 1007.2 |
| 20260507233357 | 46 | 206 | 0.0 | 0.0 | 0.00 | 0.00 | 0.00 | 61 | 1007.0 |
| 20260507232855 | 47 | 208 | 0.0 | 0.0 | 0.00 | 0.00 | 0.00 | 59 | 1007.1 |
| 20260507232351 | 47 | 249 | 0.0 | 1.0 | 0.00 | 0.00 | 0.00 | 58 | 1007.0 |
| 20260507231849 | 48 | 197 | 0.0 | 0.0 | 0.00 | 0.00 | 0.00 | 57 | 1007.1 |
| 20260507231345 | 48 | 230 | 0.0 | 3.0 | 0.00 | 0.00 | 0.00 | 56 | 1006.9 |
| 20260507230841 | 48 | 249 | 0.0 | 4.0 | 0.00 | 0.00 | 0.00 | 55 | 1007.0 |
| 20260507230339 | 48 | 243 | 2.0 | 3.0 | 0.00 | 0.00 | 0.00 | 55 | 1007.1 |
| 20260507225838 | 48 | 212 | 0.0 | 3.0 | 0.00 | 0.00 | 0.00 | 57 | 1006.9 |
| 20260507225335 | 48 | 282 | 0.0 | 2.0 | 0.00 | 0.00 | 0.00 | 54 | 1006.9 |
| 20260507224831 | 48 | 200 | 1.0 | 1.0 | 0.00 | 0.00 | 0.00 | 55 | 1006.9 |
| 20260507224328 | 49 | 234 | 0.0 | 0.0 | 0.00 | 0.00 | 0.00 | 57 | 1006.9 |
| 20260507223824 | 49 | 275 | 2.0 | 4.0 | 0.00 | 0.00 | 0.00 | 56 | 1006.8 |
| 20260507223320 | 49 | 242 | 2.0 | 3.0 | 0.00 | 0.00 | 0.00 | 54 | 1006.9 |
| 20260507222818 | 49 | 282 | 2.0 | 3.0 | 0.00 | 0.00 | 0.00 | 54 | 1006.8 |
| 20260507222314 | 49 | 206 | 0.0 | 3.0 | 0.00 | 0.00 | 0.00 | 56 | 1006.5 |
| 20260507221811 | 48 | 242 | 0.0 | 3.0 | 0.00 | 0.00 | 0.00 | 55 | 1006.5 |
| 20260507221307 | 48 | 153 | 1.0 | 3.0 | 0.00 | 0.00 | 0.00 | 55 | 1006.8 |
| 20260507220803 | 49 | 284 | 2.0 | 2.0 | 0.00 | 0.00 | 0.00 | 54 | 1007.0 |
| 20260507220302 | 49 | 206 | 1.0 | 2.0 | 0.00 | 0.00 | 0.00 | 55 | 1006.9 |
| 20260507215757 | 49 | 309 | 2.0 | 4.0 | 0.00 | 0.00 | 0.00 | 53 | 1006.9 |
| 20260507215255 | 50 | 296 | 2.0 | 4.0 | 0.00 | 0.00 | 0.00 | 51 | 1006.9 |
| 20260507214752 | 50 | 240 | 0.0 | 1.0 | 0.00 | 0.00 | 0.00 | 54 | 1006.9 |
| 20260507214249 | 50 | 246 | 1.0 | 1.0 | 0.00 | 0.00 | 0.00 | 50 | 1006.9 |
| 20260507213744 | 51 | 296 | 2.0 | 3.0 | 0.00 | 0.00 | 0.00 | 50 | 1007.0 |
| 20260507213242 | 51 | 258 | 0.0 | 2.0 | 0.00 | 0.00 | 0.00 | 51 | 1007.1 |
| 20260507212738 | 51 | 217 | 0.0 | 4.0 | 0.00 | 0.00 | 0.00 | 50 | 1007.1 |
| 20260507212234 | 51 | 145 | 1.0 | 4.0 | 0.00 | 0.00 | 0.00 | 50 | 1006.9 |
| 20260507211731 | 51 | 232 | 1.0 | 4.0 | 0.00 | 0.00 | 0.00 | 49 | 1006.9 |
| 20260507211228 | 51 | 275 | 3.0 | 8.0 | 0.00 | 0.00 | 0.00 | 48 | 1007.0 |
| 20260507210725 | 50 | 272 | 1.0 | 4.0 | 0.00 | 0.00 | 0.00 | 48 | 1006.9 |
| 20260507210222 | 50 | 175 | 1.0 | 2.0 | 0.00 | 0.00 | 0.00 | 51 | 1006.9 |
| 20260507205718 | 50 | 293 | 1.0 | 2.0 | 0.00 | 0.00 | 0.00 | 48 | 1006.8 |
| 20260507205215 | 51 | 121 | 0.0 | 1.0 | 0.00 | 0.00 | 0.00 | 53 | 1007.0 |
| 20260507204711 | 51 | 207 | 0.0 | 3.0 | 0.00 | 0.00 | 0.00 | 50 | 1006.8 |
| 20260507204209 | 51 | 347 | 2.0 | 6.0 | 0.00 | 0.00 | 0.00 | 49 | 1007.0 |
| 20260507203707 | 51 | 143 | 1.0 | 4.0 | 0.00 | 0.00 | 0.00 | 48 | 1006.6 |
| 20260507203204 | 51 | 7 | 1.0 | 3.0 | 0.00 | 0.00 | 0.00 | 50 | 1007.0 |
| 20260507202659 | 50 | 42 | 4.0 | 7.0 | 0.00 | 0.00 | 0.00 | 49 | 1007.0 |
| 20260507202155 | 50 | 231 | 0.0 | 1.0 | 0.00 | 0.00 | 0.00 | 53 | 1006.9 |
| 20260507201650 | 49 | 233 | 0.0 | 2.0 | 0.00 | 0.00 | 0.00 | 53 | 1006.9 |
| 20260507201148 | 49 | 167 | 1.0 | 2.0 | 0.00 | 0.00 | 0.00 | 54 | 1007.0 |
| 20260507200644 | 49 | 304 | 3.0 | 4.0 | 0.00 | 0.00 | 0.00 | 52 | 1006.9 |
| 20260507200140 | 49 | 177 | 0.0 | 2.0 | 0.00 | 0.00 | 0.00 | 54 | 1007.1 |
| 20260507195637 | 50 | 207 | 1.0 | 4.0 | 0.00 | 0.00 | 0.00 | 51 | 1006.9 |
| 20260507195134 | 50 | 229 | 0.0 | 8.0 | 0.00 | 0.00 | 0.00 | 51 | 1006.9 |
| 20260507194631 | 51 | 274 | 3.0 | 8.0 | 0.00 | 0.00 | 0.00 | 49 | 1007.0 |
| 20260507194126 | 50 | 258 | 0.0 | 2.0 | 0.00 | 0.00 | 0.00 | 47 | 1007.0 |
| 20260507193624 | 50 | 269 | 0.0 | 1.0 | 0.00 | 0.00 | 0.00 | 47 | 1007.0 |
| 20260507193121 | 51 | 238 | 0.0 | 4.0 | 0.00 | 0.00 | 0.00 | 47 | 1007.2 |
| 20260507192617 | 51 | 284 | 0.0 | 1.0 | 0.00 | 0.00 | 0.00 | 50 | 1007.1 |
| 20260507192114 | 51 | 209 | 3.0 | 3.0 | 0.00 | 0.00 | 0.00 | 49 | 1007.1 |
| 20260507191609 | 51 | 312 | 2.0 | 3.0 | 0.00 | 0.00 | 0.00 | 47 | 1007.2 |
| 20260507191106 | 52 | 265 | 2.0 | 3.0 | 0.00 | 0.00 | 0.00 | 45 | 1007.3 |
| 20260507190603 | 53 | 232 | 0.0 | 2.0 | 0.00 | 0.00 | 0.00 | 47 | 1007.2 |
| 20260507185600 | 53 | 253 | 4.0 | 8.0 | 0.00 | 0.00 | 0.00 | 46 | 1007.3 |
| 20260507185056 | 51 | 307 | 1.0 | 7.0 | 0.00 | 0.00 | 0.00 | 49 | 1007.4 |
| 20260507184555 | 50 | 39 | 1.0 | 6.0 | 0.00 | 0.00 | 0.00 | 49 | 1007.2 |
| 20260507184052 | 51 | 276 | 2.0 | 2.0 | 0.00 | 0.00 | 0.00 | 49 | 1007.2 |
| 20260507183548 | 52 | 233 | 1.0 | 4.0 | 0.00 | 0.00 | 0.00 | 52 | 1007.4 |
| 20260507183045 | 51 | 246 | 1.0 | 7.0 | 0.00 | 0.00 | 0.00 | 50 | 1007.5 |
| 20260507182542 | 50 | 250 | 0.0 | 2.0 | 0.00 | 0.00 | 0.00 | 51 | 1007.6 |
| 20260507182037 | 50 | 254 | 1.0 | 2.0 | 0.00 | 0.00 | 0.00 | 51 | 1007.6 |
| 20260507181535 | 49 | 111 | 2.0 | 3.0 | 0.00 | 0.00 | 0.00 | 52 | 1007.6 |
| 20260507181031 | 49 | 263 | 0.0 | 3.0 | 0.00 | 0.00 | 0.00 | 53 | 1007.7 |
| 20260507180527 | 50 | 236 | 4.0 | 4.0 | 0.00 | 0.00 | 0.00 | 50 | 1007.8 |
| 20260507180024 | 50 | 323 | 3.0 | 4.0 | 0.00 | 0.00 | 0.00 | 49 | 1007.6 |
| 20260507175520 | 49 | 218 | 0.0 | 6.0 | 0.00 | 0.00 | 0.00 | 55 | 1007.7 |
| 20260507175018 | 49 | 289 | 1.0 | 3.0 | 0.00 | 0.00 | 0.00 | 53 | 1007.5 |
| 20260507174515 | 50 | 264 | 2.0 | 6.0 | 0.00 | 0.00 | 0.00 | 48 | 1007.7 |
| 20260507174013 | 52 | 291 | 3.0 | 4.0 | 0.00 | 0.00 | 0.00 | 45 | 1007.8 |
| 20260507173509 | 53 | 284 | 0.0 | 2.0 | 0.00 | 0.00 | 0.00 | 48 | 1007.7 |
| 20260507173007 | 51 | 214 | 1.0 | 3.0 | 0.00 | 0.00 | 0.00 | 51 | 1008.0 |
| 20260507172503 | 51 | 227 | 0.0 | 3.0 | 0.00 | 0.00 | 0.00 | 48 | 1007.8 |
| 20260507171959 | 53 | 252 | 1.0 | 3.0 | 0.00 | 0.00 | 0.00 | 46 | 1007.8 |
| 20260507171455 | 53 | 174 | 1.0 | 7.0 | 0.00 | 0.00 | 0.00 | 46 | 1008.0 |
| 20260507170953 | 53 | 214 | 1.0 | 3.0 | 0.00 | 0.00 | 0.00 | 47 | 1008.0 |
| 20260507170449 | 52 | 247 | 2.0 | 4.0 | 0.00 | 0.00 | 0.00 | 47 | 1007.8 |
| 20260507165945 | 49 | 221 | 1.0 | 4.0 | 0.00 | 0.00 | 0.00 | 54 | 1007.8 |
| 20260507165442 | 49 | 220 | 1.0 | 6.0 | 0.00 | 0.00 | 0.00 | 52 | 1008.0 |
| 20260507164938 | 50 | 282 | 1.0 | 2.0 | 0.00 | 0.00 | 0.00 | 50 | 1008.1 |
| 20260507164435 | 51 | 296 | 2.0 | 6.0 | 0.00 | 0.00 | 0.00 | 49 | 1007.9 |
| 20260507163931 | 51 | 244 | 1.0 | 4.0 | 0.00 | 0.00 | 0.00 | 50 | 1007.9 |
| 20260507163429 | 51 | 244 | 3.0 | 4.0 | 0.00 | 0.00 | 0.00 | 48 | 1008.1 |
| 20260507162926 | 51 | 192 | 2.0 | 4.0 | 0.00 | 0.00 | 0.00 | 45 | 1007.9 |
| 20260507162421 | 50 | 40 | 2.0 | 9.0 | 0.00 | 0.00 | 0.00 | 53 | 1008.1 |
| 20260507161919 | 50 | 340 | 2.0 | 3.0 | 0.00 | 0.00 | 0.00 | 52 | 1008.3 |
| 20260507161415 | 50 | 248 | 0.0 | 2.0 | 0.00 | 0.00 | 0.00 | 49 | 1008.3 |
| 20260507160912 | 49 | 243 | 1.0 | 4.0 | 0.00 | 0.00 | 0.00 | 55 | 1008.3 |
| 20260507160407 | 50 | 88 | 1.0 | 4.0 | 0.00 | 0.00 | 0.00 | 51 | 1008.3 |
| 20260507155904 | 49 | 81 | 0.0 | 7.0 | 0.00 | 0.00 | 0.00 | 56 | 1008.6 |
| 20260507155359 | 50 | 276 | 3.0 | 4.0 | 0.00 | 0.00 | 0.00 | 52 | 1008.3 |
| 20260507154856 | 49 | 237 | 1.0 | 8.0 | 0.00 | 0.00 | 0.00 | 51 | 1008.4 |
| 20260507154353 | 49 | 92 | 2.0 | 4.0 | 0.00 | 0.00 | 0.00 | 57 | 1008.7 |
| 20260507153851 | 48 | 287 | 4.0 | 6.0 | 0.00 | 0.00 | 0.00 | 54 | 1008.6 |
| 20260507153347 | 50 | 183 | 1.0 | 1.0 | 0.00 | 0.00 | 0.00 | 56 | 1008.4 |
| 20260507152843 | 48 | 231 | 0.0 | 3.0 | 0.00 | 0.00 | 0.00 | 58 | 1008.4 |
| 20260507152340 | 48 | 294 | 2.0 | 7.0 | 0.00 | 0.00 | 0.00 | 59 | 1008.7 |
| 20260507151837 | 48 | 270 | 6.0 | 7.0 | 0.00 | 0.00 | 0.00 | 55 | 1009.0 |
| 20260507151333 | 48 | 79 | 1.0 | 6.0 | 0.00 | 0.00 | 0.00 | 56 | 1008.7 |
| 20260507150830 | 47 | 96 | 0.0 | 4.0 | 0.00 | 0.00 | 0.00 | 57 | 1008.7 |
| 20260507150326 | 48 | 221 | 0.0 | 2.0 | 0.00 | 0.00 | 0.00 | 62 | 1008.9 |
| 20260507145822 | 48 | 247 | 1.0 | 6.0 | 0.00 | 0.00 | 0.00 | 59 | 1008.9 |
| 20260507145319 | 48 | 300 | 1.0 | 6.0 | 0.00 | 0.00 | 0.00 | 64 | 1008.7 |
| 20260507144816 | 48 | 98 | 2.0 | 7.0 | 0.00 | 0.00 | 0.00 | 58 | 1008.8 |
| 20260507144313 | 48 | 214 | 1.0 | 4.0 | 0.00 | 0.00 | 0.00 | 57 | 1008.9 |
| 20260507143809 | 47 | 199 | 1.0 | 2.0 | 0.00 | 0.00 | 0.00 | 61 | 1008.9 |
| 20260507143307 | 48 | 281 | 4.0 | 6.0 | 0.00 | 0.00 | 0.00 | 59 | 1008.9 |
| 20260507142803 | 47 | 277 | 3.0 | 6.0 | 0.00 | 0.00 | 0.00 | 62 | 1009.0 |
| 20260507142259 | 46 | 227 | 1.0 | 4.0 | 0.00 | 0.00 | 0.00 | 60 | 1009.1 |
| 20260507141756 | 47 | 229 | 2.0 | 4.0 | 0.00 | 0.00 | 0.00 | 64 | 1008.9 |
| 20260507141253 | 47 | 226 | 2.0 | 6.0 | 0.00 | 0.00 | 0.00 | 60 | 1009.0 |
| 20260507140749 | 46 | 194 | 3.0 | 4.0 | 0.00 | 0.00 | 0.00 | 60 | 1008.9 |
| 20260507140247 | 45 | 188 | 1.0 | 3.0 | 0.00 | 0.00 | 0.00 | 62 | 1008.9 |
| 20260507135744 | 45 | 266 | 2.0 | 3.0 | 0.00 | 0.00 | 0.00 | 65 | 1009.0 |
| 20260507135241 | 45 | 211 | 4.0 | 6.0 | 0.00 | 0.00 | 0.00 | 60 | 1009.1 |
| 20260507134737 | 45 | 171 | 1.0 | 2.0 | 0.00 | 0.00 | 0.00 | 67 | 1009.0 |
| 20260507134234 | 46 | 225 | 0.0 | 2.0 | 0.00 | 0.00 | 0.00 | 67 | 1009.2 |
| 20260507133730 | 45 | 228 | 2.0 | 6.0 | 0.00 | 0.00 | 0.00 | 65 | 1008.9 |
| 20260507133227 | 45 | 248 | 1.0 | 4.0 | 0.00 | 0.00 | 0.00 | 70 | 1008.9 |
| 20260507132724 | 45 | 264 | 1.0 | 3.0 | 0.00 | 0.00 | 0.00 | 67 | 1008.9 |
| 20260507132221 | 43 | 243 | 3.0 | 7.0 | 0.00 | 0.00 | 0.00 | 67 | 1009.0 |
| 20260507131717 | 44 | 211 | 0.0 | 4.0 | 0.00 | 0.00 | 0.00 | 70 | 1009.1 |
| 20260507131215 | 43 | 165 | 2.0 | 6.0 | 0.00 | 0.00 | 0.00 | 70 | 1008.9 |
| 20260507130711 | 43 | 168 | 0.0 | 3.0 | 0.00 | 0.00 | 0.00 | 73 | 1009.0 |
| 20260507130209 | 43 | 239 | 1.0 | 4.0 | 0.00 | 0.00 | 0.00 | 70 | 1009.1 |
| 20260507125708 | 43 | 127 | 2.0 | 3.0 | 0.00 | 0.00 | 0.00 | 71 | 1009.0 |
| 20260507125205 | 42 | 289 | 2.0 | 2.0 | 0.00 | 0.00 | 0.00 | 77 | 1009.0 |
| 20260507124701 | 42 | 236 | 4.0 | 7.0 | 0.00 | 0.00 | 0.00 | 74 | 1009.0 |
| 20260507124158 | 43 | 262 | 2.0 | 4.0 | 0.00 | 0.00 | 0.00 | 77 | 1008.9 |
| 20260507123657 | 42 | 67 | 0.0 | 1.0 | 0.00 | 0.00 | 0.00 | 83 | 1009.0 |
| 20260507123154 | 42 | 263 | 2.0 | 3.0 | 0.00 | 0.00 | 0.00 | 77 | 1008.8 |
| 20260507122649 | 41 | 311 | 1.0 | 1.0 | 0.00 | 0.00 | 0.00 | 79 | 1008.8 |
| 20260507122145 | 41 | 334 | 1.0 | 2.0 | 0.00 | 0.00 | 0.00 | 82 | 1008.8 |
| 20260507121641 | 41 | 216 | 0.0 | 2.0 | 0.00 | 0.00 | 0.00 | 80 | 1009.0 |
| 20260507121137 | 41 | 304 | 1.0 | 2.0 | 0.00 | 0.00 | 0.00 | 81 | 1009.1 |
| 20260507120633 | 40 | 77 | 0.0 | 4.0 | 0.00 | 0.00 | 0.00 | 82 | 1009.1 |
| 20260507120130 | 39 | 171 | 0.0 | 2.0 | 0.00 | 0.00 | 0.00 | 84 | 1008.9 |
| 20260507115626 | 39 | 13 | 1.0 | 7.0 | 0.00 | 0.00 | 0.00 | 82 | 1009.0 |
| 20260507115122 | 39 | 97 | 1.0 | 2.0 | 0.00 | 0.00 | 0.00 | 84 | 1008.9 |
| 20260507114618 | 39 | 57 | 3.0 | 3.0 | 0.00 | 0.00 | 0.00 | 85 | 1008.8 |
| 20260507114115 | 39 | 191 | 1.0 | 2.0 | 0.00 | 0.00 | 0.00 | 85 | 1008.8 |